sat.trackr.live / text

‹ back to catalog

CO3D 4

NORAD 64901 · 2025-156C

PAYLOAD ACTIVE UNKNOWN

§ Identity

Operator
Country
FR
Launch date
2025-07-26
Launch site
FRGUI
Launch vehicle
Mass (kg)
RCS (m²)

Purposes: earth_obs

External: N2YO · Heavens-Above · Gunter

§ Orbital elements

Epoch: 2026-09-19T21:45:45.456768Z

Period
94.72 min
Inclination
97.4340°
Eccentricity
0.0001299
Mean motion
15.20201978 rev/d
Perigee alt
504.3 km
Apogee alt
506.1 km
Semi-major
6,883.4 km
B*
1.2513e-4
RAAN
340.2381°
Arg perigee
29.4091°
Mean anomaly
330.7217°
Rev number
6,392

§ Raw data

CO3D 41 64901U 25156C   26262.90677612  .00002642  00000+0  12513-3 0  99932 64901  97.4340 340.2381 0001299  29.4091 330.7217 15.20201978 63924

JSON: /api/v1/satellites/64901 · /tle

For live sub-satellite position, see the globe view (requires WebGL).

§ Visibility from observer

Set your observer location to see the next 7 days of passes ≥ 10°. The values pass through the URL so the page stays shareable.

No JS? Fill the form by hand. The geolocation button needs JavaScript.